Weather History for Homer, AK

Change the Weather History Date:

Thursday, May 2, 2013

  Actual Average Record
Temperature  
Mean Temperature 40 °F -  
Max Temperature 44 °F 47 °F 64 °F (2003)
Min Temperature 35 °F 33 °F 20 °F (1949)
Degree Days  
Heating Degree Days 26    
Moisture  
Dew Point 34 °F    
Average Humidity 80    
Maximum Humidity 93    
Minimum Humidity 68    
Precipitation  
Precipitation 0.13 in - - ()
Sea Level Pressure  
Sea Level Pressure 29.77 in    
Wind  
Wind Speed 1 mph (WSW)    
Max Wind Speed 7 mph    
Max Gust Speed -    
Visibility 10 miles    
Events Rain    
Averages and records for this station are not official NWS values.
T = Trace of Precipitation, MM = Missing Value Source: NWS Daily Summary

Daily Weather History Graph

Daily Weather History Graph

Search for Another Location

Airport:

Trip Planner

Search our weather history database for the weather conditions in past years. The results will help you decide how hot, cold, wet, or windy it might be!

Date:

Astronomy

May. 02, 2013 Rise Set
Actual Time 6:01 AM AKDT 10:05 PM AKDT
Civil Twilight 5:08 AM AKDT 10:59 PM AKDT
Nautical Twilight 3:45 AM AKDT 12:24 AM AKDT
Astronomical Twilight Sun does not rise Sun does not rise
Moon 3:43 AM AKDT (5/2) 1:23 PM AKDT (5/2)
Length of Visible Light 17h 50m
Length of Day
16h 04m
Last Quarter, 46% of the Moon is Illuminated
May 2
Last Quarter
May 9
New
May 17
First Quarter
May 24
Full
May 31
Last Quarter

Hourly Weather History & Observations

Time (AKDT) Temp. Windchill Dew Point Humidity Pressure Visibility Wind Dir Wind Speed Gust Speed Precip Events Conditions
12:53 AM 39.9 °F - 30.9 °F 70% 29.67 in 10.0 mi Calm Calm - N/A   Overcast
1:53 AM 39.9 °F - 30.0 °F 68% 29.69 in 10.0 mi Calm Calm - N/A   Overcast
2:53 AM 39.0 °F - 30.9 °F 73% 29.70 in 10.0 mi Calm Calm - 0.00 in Rain Light Rain
3:10 AM 37.4 °F - 32.0 °F 81% 29.70 in 10.0 mi Calm Calm - 0.00 in Rain Light Rain
3:50 AM 37.4 °F - 32.0 °F 81% 29.71 in 10.0 mi Calm Calm - 0.01 in Rain Light Rain
3:53 AM 37.9 °F - 32.0 °F 79% 29.71 in 10.0 mi Calm Calm - 0.01 in Rain Light Rain
4:53 AM 37.0 °F - 33.1 °F 86% 29.72 in 10.0 mi Calm Calm - 0.02 in   Overcast
5:50 AM 35.6 °F - 33.8 °F 93% 29.71 in 10.0 mi Calm Calm - 0.02 in   Overcast
5:53 AM 36.0 °F - 33.1 °F 89% 29.71 in 10.0 mi Calm Calm - 0.02 in   Overcast
6:53 AM 36.0 °F - 33.1 °F 89% 29.72 in 10.0 mi Calm Calm - 0.00 in   Overcast
7:41 AM 37.4 °F - 33.8 °F 87% 29.73 in 7.0 mi Calm Calm - 0.00 in   Overcast
7:53 AM 37.9 °F - 34.0 °F 86% 29.73 in 10.0 mi Calm Calm - 0.00 in   Overcast
8:53 AM 39.0 °F 35.7 °F 34.0 °F 82% 29.75 in 10.0 mi East 4.6 mph - N/A   Overcast
9:53 AM 39.9 °F - 35.1 °F 83% 29.77 in 10.0 mi Calm Calm - N/A   Overcast
10:53 AM 39.9 °F - 35.1 °F 83% 29.79 in 10.0 mi Calm Calm - N/A   Overcast
11:53 AM 42.1 °F - 36.0 °F 79% 29.80 in 10.0 mi Calm Calm - 0.00 in   Overcast
12:53 PM 42.1 °F 40.2 °F 37.0 °F 82% 29.82 in 10.0 mi SSW 3.5 mph - N/A   Overcast
1:53 PM 43.0 °F 41.3 °F 36.0 °F 76% 29.84 in 10.0 mi SW 3.5 mph - N/A   Overcast
2:53 PM 44.1 °F 40.1 °F 36.0 °F 73% 29.85 in 10.0 mi WSW 6.9 mph - 0.00 in   Overcast
3:53 PM 44.1 °F 40.8 °F 37.0 °F 76% 29.86 in 10.0 mi WSW 5.8 mph - N/A   Overcast
4:53 PM 43.0 °F 40.3 °F 36.0 °F 76% 29.85 in 10.0 mi WNW 4.6 mph - 0.00 in Rain Light Rain
5:53 PM 43.0 °F - 36.0 °F 76% 29.84 in 10.0 mi Calm Calm - 0.01 in Rain Light Rain
6:53 PM 43.0 °F - 36.0 °F 76% 29.84 in 10.0 mi Calm Calm - 0.03 in Rain Light Rain
7:53 PM 43.0 °F - 37.9 °F 82% 29.81 in 10.0 mi Calm Calm - 0.03 in   Overcast
8:53 PM 42.1 °F - 37.9 °F 85% 29.80 in 10.0 mi Calm Calm - N/A   Overcast
9:53 PM 43.0 °F - 36.0 °F 76% 29.79 in 10.0 mi Calm Calm - N/A   Overcast
10:53 PM 43.0 °F 41.3 °F 35.1 °F 74% 29.80 in 10.0 mi WNW 3.5 mph - 0.00 in Rain Light Rain
11:53 PM 42.1 °F - 36.0 °F 79% 29.79 in 10.0 mi North - - 0.01 in   Overcast